STARLINK-2058 (47667 NORAD) Tracking and Keplerian Element Data

This shows tracking and keplerian element data for the satellite.

Feedback or suggestion? Click here.




ElementValue
Catalog47667
NameSTARLINK-2058
Epoch Orbit183
Epoch Day56.91667824
Epoch Year2021
RAAN53.6761
Inclination53.0491
Eccentricity0.0001124
Argument of Perigee67.2678
Mean Anonmoly19.7755
Mean Motion15.79362648
Decay Rate-0.01069017
L11 47667U 21012AZ 21056.91667824 -.01069017 00000-0 -64425-2 0 9992
L22 47667 53.0491 53.6761 0001124 67.2678 19.7755 15.79362648 1833

Live tracking and technical data element details for STARLINK-2058 (NORAD 47667). STARLINK-2058 can be tracked NOW for your location showing map with azimuth and elevation plus other details from your city location.

Track the satellite on the map from your city or location and see movement details for azimuth, elevation, latitude, longitude, range, height, and movement on the map or in text.







IsCatalogInMostPopularTable: catalog: 47667, numindb: 1
Update: records affected: 1



GetName: 47667 STARLINK-2058

Hit Count: updated at: Fri, 26 Feb 2021 10:20:07 GMT